| time (UTC) | temp F | wind direction | speed MPH | gust MPH | rain 1hr in | rain 24hr in | rain mn in | humidity % | barometer mb |
| 20260902052957 | 61 | 302 | 0.0 | 0.0 | 0.00 | 0.00 | 0.00 | 99 | 1072.5 |
| 20260902051953 | 62 | 310 | 0.0 | 0.0 | 0.00 | 0.00 | 0.00 | 99 | 1072.5 |
| 20260902050952 | 62 | 305 | 0.0 | 0.0 | 0.00 | 0.00 | 0.00 | 99 | 1072.6 |
| 20260902045947 | 61 | 294 | 0.0 | 0.0 | 0.00 | 0.00 | 0.00 | 99 | 1072.5 |
| 20260902044945 | 61 | 293 | 0.0 | 0.0 | 0.00 | 0.00 | 0.00 | 99 | 1072.4 |
| 20260902043942 | 60 | 296 | 0.0 | 1.0 | 0.00 | 0.00 | 0.00 | 99 | 1072.3 |
| 20260902042937 | 60 | 303 | 1.0 | 1.0 | 0.00 | 0.00 | 0.00 | 99 | 1072.2 |
| 20260902041932 | 60 | 303 | 1.0 | 1.0 | 0.00 | 0.00 | 0.00 | 99 | 1072.2 |
| 20260902040932 | 61 | 303 | 0.0 | 0.0 | 0.00 | 0.00 | 0.00 | 99 | 1072.2 |
| 20260902035931 | 61 | 300 | 0.0 | 0.0 | 0.00 | 0.80 | 0.80 | 99 | 1072.0 |
| 20260902034926 | 61 | 305 | 0.0 | 0.0 | 0.00 | 0.80 | 0.80 | 99 | 1072.2 |
| 20260902033926 | 62 | 302 | 0.0 | 0.0 | 0.00 | 0.80 | 0.80 | 99 | 1072.1 |
| 20260902032925 | 62 | 304 | 1.0 | 1.0 | 0.00 | 0.80 | 0.80 | 99 | 1071.8 |
| 20260902031920 | 62 | 296 | 0.0 | 0.0 | 0.00 | 0.80 | 0.80 | 99 | 1071.9 |
| 20260902030918 | 62 | 299 | 0.0 | 0.0 | 0.00 | 0.80 | 0.80 | 99 | 1071.9 |
| 20260902025917 | 62 | 287 | 0.0 | 0.0 | 0.00 | 0.80 | 0.80 | 99 | 1071.8 |
| 20260902024913 | 62 | 287 | 0.0 | 0.0 | 0.00 | 0.80 | 0.80 | 99 | 1071.9 |
| 20260902023909 | 63 | 284 | 0.0 | 0.0 | 0.00 | 0.80 | 0.80 | 99 | 1072.1 |
| 20260902022904 | 63 | 284 | 0.0 | 0.0 | 0.00 | 0.80 | 0.80 | 99 | 1072.1 |
| 20260902021902 | 63 | 290 | 0.0 | 0.0 | 0.00 | 0.80 | 0.80 | 99 | 1072.0 |
| 20260902020857 | 64 | 288 | 0.0 | 1.0 | 0.00 | 0.80 | 0.80 | 99 | 1072.1 |
| 20260902015854 | 64 | 266 | 0.0 | 1.0 | 0.00 | 0.80 | 0.80 | 99 | 1072.1 |
| 20260902014851 | 65 | 328 | 0.0 | 1.0 | 0.00 | 0.80 | 0.80 | 99 | 1071.6 |
| 20260902013846 | 65 | 251 | 0.0 | 0.0 | 0.00 | 0.80 | 0.80 | 99 | 1071.8 |
| 20260902012843 | 66 | 270 | 0.0 | 0.0 | 0.00 | 0.80 | 0.80 | 99 | 1071.5 |
| 20260902011840 | 66 | 260 | 1.0 | 1.0 | 0.00 | 0.80 | 0.80 | 99 | 1071.3 |
| 20260902010840 | 67 | 129 | 2.0 | 2.0 | 0.00 | 0.80 | 0.80 | 99 | 1071.5 |
| 20260902005840 | 67 | 256 | 0.0 | 0.0 | 0.00 | 0.80 | 0.80 | 99 | 1071.6 |
| 20260902004836 | 67 | 222 | 1.0 | 1.0 | 0.00 | 0.80 | 0.80 | 99 | 1071.2 |
| 20260902003831 | 68 | 234 | 0.0 | 1.0 | 0.00 | 0.80 | 0.80 | 99 | 1071.1 |
| 20260902002828 | 68 | 133 | 2.0 | 2.0 | 0.00 | 0.80 | 0.80 | 99 | 1071.3 |
| 20260902001828 | 68 | 204 | 1.0 | 1.0 | 0.00 | 0.80 | 0.80 | 99 | 1071.1 |
| 20260902000824 | 68 | 258 | 0.0 | 0.0 | 0.00 | 0.80 | 0.80 | 99 | 1070.7 |
| 20260901235819 | 68 | 267 | 0.0 | 0.0 | 0.00 | 0.80 | 0.80 | 99 | 1070.6 |
| 20260901234819 | 69 | 268 | 0.0 | 0.0 | 0.00 | 0.80 | 0.80 | 98 | 1070.5 |
| 20260901233815 | 69 | 277 | 0.0 | 1.0 | 0.00 | 0.80 | 0.80 | 97 | 1070.6 |
| 20260901232812 | 70 | 269 | 1.0 | 1.0 | 0.00 | 0.80 | 0.80 | 97 | 1070.6 |
| 20260901231809 | 70 | 199 | 4.0 | 5.0 | 0.00 | 0.80 | 0.80 | 96 | 1071.0 |
| 20260901230807 | 70 | 256 | 0.0 | 0.0 | 0.00 | 0.80 | 0.80 | 96 | 1070.7 |
| 20260901225808 | 71 | 253 | 0.0 | 1.0 | 0.00 | 0.80 | 0.80 | 95 | 1070.8 |
| 20260901224803 | 71 | 244 | 1.0 | 1.0 | 0.00 | 0.80 | 0.80 | 95 | 1070.5 |
| 20260901223801 | 71 | 257 | 1.0 | 1.0 | 0.00 | 0.80 | 0.80 | 95 | 1070.7 |
| 20260901222757 | 72 | 245 | 1.0 | 1.0 | 0.00 | 0.80 | 0.80 | 94 | 1070.8 |
| 20260901221755 | 72 | 271 | 1.0 | 1.0 | 0.00 | 0.80 | 0.80 | 93 | 1070.5 |
| 20260901220756 | 73 | 223 | 2.0 | 2.0 | 0.00 | 0.80 | 0.80 | 91 | 1070.3 |
| 20260901215754 | 73 | 271 | 1.0 | 1.0 | 0.00 | 0.80 | 0.80 | 90 | 1070.3 |
| 20260901214752 | 73 | 233 | 1.0 | 1.0 | 0.00 | 0.80 | 0.80 | 90 | 1070.2 |
| 20260901213752 | 73 | 282 | 0.0 | 0.0 | 0.00 | 0.80 | 0.80 | 90 | 1070.3 |
| 20260901212752 | 73 | 265 | 0.0 | 0.0 | 0.00 | 0.80 | 0.80 | 90 | 1070.2 |
| 20260901211748 | 73 | 273 | 1.0 | 1.0 | 0.00 | 0.80 | 0.80 | 90 | 1070.3 |
| 20260901210747 | 73 | 278 | 0.0 | 0.0 | 0.00 | 0.80 | 0.80 | 91 | 1070.2 |
| 20260901205744 | 73 | 272 | 2.0 | 2.0 | 0.00 | 0.80 | 0.80 | 92 | 1070.2 |
| 20260901204739 | 73 | 254 | 1.0 | 1.0 | 0.00 | 0.80 | 0.80 | 91 | 1070.3 |
| 20260901203736 | 73 | 278 | 1.0 | 2.0 | 0.00 | 0.80 | 0.80 | 91 | 1070.1 |
| 20260901202735 | 73 | 265 | 3.0 | 5.0 | 0.00 | 0.80 | 0.80 | 91 | 1070.0 |
| 20260901201732 | 73 | 265 | 3.0 | 3.0 | 0.00 | 0.80 | 0.80 | 90 | 1070.0 |
| 20260901200732 | 73 | 264 | 2.0 | 2.0 | 0.00 | 0.80 | 0.80 | 89 | 1070.3 |
| 20260901195731 | 73 | 237 | 0.0 | 1.0 | 0.00 | 0.80 | 0.80 | 88 | 1070.1 |
| 20260901194727 | 72 | 200 | 1.0 | 1.0 | 0.00 | 0.80 | 0.80 | 88 | 1070.2 |
| 20260901193724 | 72 | 236 | 1.0 | 1.0 | 0.00 | 0.80 | 0.80 | 88 | 1070.4 |
| 20260901192723 | 72 | 236 | 1.0 | 1.0 | 0.00 | 0.80 | 0.80 | 89 | 1070.3 |
| 20260901191720 | 71 | 189 | 2.0 | 2.0 | 0.00 | 0.80 | 0.80 | 92 | 1070.2 |
| 20260901190718 | 72 | 236 | 1.0 | 1.0 | 0.00 | 0.80 | 0.80 | 92 | 1070.3 |
| 20260901185716 | 71 | 223 | 1.0 | 1.0 | 0.00 | 0.80 | 0.80 | 93 | 1070.6 |
| 20260901184716 | 71 | 248 | 0.0 | 1.0 | 0.00 | 0.80 | 0.80 | 93 | 1070.4 |
| 20260901183713 | 70 | 234 | 1.0 | 1.0 | 0.00 | 0.80 | 0.80 | 93 | 1070.4 |
| 20260901182709 | 70 | 210 | 1.0 | 1.0 | 0.00 | 0.80 | 0.80 | 94 | 1070.4 |
| 20260901181709 | 70 | 223 | 1.0 | 1.0 | 0.00 | 0.80 | 0.80 | 94 | 1070.3 |
| 20260901180709 | 70 | 237 | 1.0 | 1.0 | 0.00 | 0.80 | 0.80 | 94 | 1070.4 |
| 20260901175708 | 70 | 237 | 1.0 | 1.0 | 0.00 | 0.80 | 0.80 | 94 | 1070.1 |
| 20260901174703 | 70 | 216 | 1.0 | 2.0 | 0.00 | 0.80 | 0.80 | 94 | 1070.2 |
| 20260901173700 | 70 | 246 | 0.0 | 1.0 | 0.00 | 0.80 | 0.80 | 94 | 1070.3 |
| 20260901172657 | 69 | 245 | 1.0 | 1.0 | 0.00 | 0.80 | 0.80 | 95 | 1070.5 |
| 20260901171655 | 69 | 254 | 0.0 | 0.0 | 0.00 | 0.80 | 0.80 | 95 | 1070.3 |
| 20260901170654 | 69 | 206 | 3.0 | 3.0 | 0.00 | 0.80 | 0.80 | 95 | 1070.1 |
| 20260901165653 | 69 | 206 | 1.0 | 2.0 | 0.00 | 0.80 | 0.80 | 95 | 1070.1 |
| 20260901164651 | 69 | 239 | 1.0 | 1.0 | 0.00 | 0.80 | 0.80 | 96 | 1070.3 |
| 20260901163647 | 69 | 245 | 0.0 | 0.0 | 0.00 | 0.80 | 0.80 | 97 | 1070.3 |
| 20260901162647 | 68 | 256 | 1.0 | 1.0 | 0.00 | 0.80 | 0.80 | 98 | 1070.0 |
| 20260901161645 | 68 | 256 | 1.0 | 1.0 | 0.00 | 0.80 | 0.80 | 98 | 1070.3 |
| 20260901160641 | 68 | 272 | 1.0 | 1.0 | 0.00 | 0.80 | 0.80 | 98 | 1070.2 |
| 20260901155641 | 68 | 225 | 1.0 | 1.0 | 0.00 | 0.80 | 0.80 | 98 | 1070.4 |
| 20260901154637 | 68 | 249 | 1.0 | 1.0 | 0.00 | 0.80 | 0.80 | 98 | 1070.5 |
| 20260901153633 | 68 | 251 | 1.0 | 1.0 | 0.00 | 0.80 | 0.80 | 98 | 1070.7 |
| 20260901152628 | 68 | 149 | 4.0 | 5.0 | 0.00 | 0.80 | 0.80 | 98 | 1070.4 |
| 20260901151628 | 68 | 171 | 3.0 | 3.0 | 0.00 | 0.80 | 0.80 | 98 | 1070.6 |
| 20260901150626 | 67 | 234 | 1.0 | 1.0 | 0.00 | 0.80 | 0.80 | 99 | 1070.4 |
| 20260901145624 | 66 | 221 | 1.0 | 2.0 | 0.00 | 0.80 | 0.80 | 99 | 1070.4 |
| 20260901144619 | 65 | 148 | 3.0 | 3.0 | 0.00 | 0.80 | 0.80 | 99 | 1070.5 |
| 20260901143615 | 65 | 129 | 6.0 | 8.0 | 0.00 | 0.80 | 0.80 | 99 | 1070.3 |
| 20260901142613 | 65 | 241 | 2.0 | 2.0 | 0.00 | 0.80 | 0.80 | 99 | 1069.9 |
| 20260901141613 | 64 | 157 | 3.0 | 5.0 | 0.00 | 0.80 | 0.80 | 99 | 1069.7 |
| 20260901140613 | 64 | 217 | 0.0 | 1.0 | 0.00 | 0.80 | 0.80 | 99 | 1069.5 |
| 20260901135612 | 63 | 232 | 1.0 | 2.0 | 0.05 | 0.80 | 0.80 | 99 | 1069.4 |
| 20260901134609 | 63 | 174 | 5.0 | 6.0 | 0.12 | 0.79 | 0.79 | 99 | 1068.9 |
| 20260901133608 | 63 | 193 | 3.0 | 3.0 | 0.19 | 0.77 | 0.77 | 99 | 1069.7 |
| 20260901132608 | 63 | 170 | 5.0 | 6.0 | 0.05 | 0.74 | 0.74 | 99 | 1070.2 |
| 20260901131607 | 62 | 84 | 3.0 | 3.0 | 0.00 | 0.73 | 0.73 | 99 | 1071.2 |
| 20260901130603 | 62 | 353 | 0.0 | 1.0 | 0.00 | 0.73 | 0.73 | 99 | 1070.8 |
| 20260901125600 | 62 | 35 | 2.0 | 2.0 | 0.00 | 0.73 | 0.73 | 99 | 1070.7 |
| 20260901124555 | 62 | 339 | 2.0 | 2.0 | 0.00 | 0.73 | 0.73 | 99 | 1070.8 |
| 20260901123551 | 62 | 334 | 0.0 | 1.0 | 0.00 | 0.73 | 0.73 | 99 | 1070.7 |
| 20260901122549 | 62 | 121 | 1.0 | 1.0 | 0.07 | 0.73 | 0.73 | 99 | 1070.6 |
| 20260901121549 | 62 | 284 | 0.0 | 0.0 | 0.00 | 0.72 | 0.72 | 99 | 1071.0 |
| 20260901120544 | 62 | 295 | 0.0 | 0.0 | 0.00 | 0.72 | 0.72 | 99 | 1070.8 |
| 20260901115541 | 62 | 313 | 0.0 | 0.0 | 0.00 | 0.72 | 0.72 | 99 | 1070.5 |
| 20260901114540 | 62 | 294 | 0.0 | 0.0 | 0.00 | 0.72 | 0.72 | 99 | 1071.0 |
| 20260901113537 | 62 | 291 | 0.0 | 0.0 | 0.07 | 0.72 | 0.72 | 99 | 1070.7 |
| 20260901112533 | 62 | 281 | 0.0 | 0.0 | 0.00 | 0.71 | 0.71 | 99 | 1070.8 |
| 20260901111532 | 62 | 285 | 0.0 | 0.0 | 0.12 | 0.71 | 0.71 | 99 | 1071.0 |
| 20260901110527 | 62 | 304 | 0.0 | 0.0 | 0.05 | 0.69 | 0.69 | 99 | 1071.2 |
| 20260901105525 | 62 | 277 | 0.0 | 0.0 | 0.24 | 0.68 | 0.68 | 99 | 1071.2 |
| 20260901104520 | 62 | 280 | 0.0 | 0.0 | 0.19 | 0.64 | 0.64 | 99 | 1071.2 |
| 20260901103515 | 62 | 268 | 0.0 | 1.0 | 0.00 | 0.61 | 0.61 | 99 | 1070.8 |
| 20260901102511 | 62 | 252 | 1.0 | 1.0 | 0.00 | 0.61 | 0.61 | 99 | 1070.6 |
| 20260901101508 | 62 | 259 | 0.0 | 0.0 | 0.00 | 0.61 | 0.61 | 99 | 1071.0 |
| 20260901100508 | 62 | 106 | 1.0 | 1.0 | 0.05 | 0.61 | 0.61 | 99 | 1070.7 |
| 20260901095505 | 62 | 98 | 3.0 | 3.0 | 0.26 | 0.60 | 0.60 | 99 | 1070.6 |
| 20260901094504 | 62 | 292 | 0.0 | 0.0 | 0.42 | 0.55 | 0.55 | 99 | 1071.0 |
| 20260901093504 | 62 | 285 | 0.0 | 0.0 | 0.05 | 0.48 | 0.48 | 99 | 1070.6 |
| 20260901092500 | 63 | 264 | 0.0 | 0.0 | 0.12 | 0.46 | 0.46 | 99 | 1070.3 |
| 20260901091458 | 62 | 282 | 0.0 | 0.0 | 0.07 | 0.44 | 0.44 | 99 | 1070.3 |
| 20260901090458 | 62 | 282 | 0.0 | 0.0 | 0.12 | 0.43 | 0.43 | 99 | 1070.5 |
| 20260901085454 | 63 | 288 | 0.0 | 0.0 | 0.17 | 0.41 | 0.41 | 99 | 1070.6 |
| 20260901084452 | 62 | 98 | 2.0 | 2.0 | 0.26 | 0.38 | 0.38 | 99 | 1070.5 |
| 20260901083448 | 63 | 172 | 1.0 | 1.0 | 0.24 | 0.33 | 0.33 | 99 | 1070.6 |
| 20260901082447 | 62 | 275 | 0.0 | 0.0 | 0.19 | 0.29 | 0.29 | 99 | 1070.4 |
| 20260901081443 | 63 | 105 | 4.0 | 5.0 | 0.61 | 0.25 | 0.25 | 99 | 1070.2 |
| 20260901080438 | 63 | 302 | 0.0 | 0.0 | 0.38 | 0.14 | 0.14 | 99 | 1070.8 |
| 20260901075433 | 63 | 267 | 0.0 | 0.0 | 0.12 | 0.08 | 0.08 | 99 | 1070.3 |
| 20260901074433 | 63 | 191 | 1.0 | 1.0 | 0.05 | 0.06 | 0.06 | 99 | 1070.2 |
| 20260901073431 | 63 | 89 | 3.0 | 3.0 | 0.12 | 0.05 | 0.05 | 99 | 1070.3 |
| 20260901072432 | 64 | 135 | 2.0 | 2.0 | 0.19 | 0.03 | 0.03 | 99 | 1070.7 |
| 20260901071431 | 64 | 209 | 1.0 | 1.0 | 0.00 | 0.00 | 0.00 | 99 | 1070.8 |
| 20260901070427 | 64 | 197 | 1.0 | 1.0 | 0.00 | 0.00 | 0.00 | 99 | 1071.0 |
| 20260901065421 | 64 | 181 | 1.0 | 2.0 | 0.00 | 0.00 | 0.00 | 99 | 1071.3 |
| 20260901064418 | 64 | 202 | 2.0 | 2.0 | 0.00 | 0.00 | 0.00 | 99 | 1071.3 |
| 20260901063417 | 64 | 212 | 2.0 | 2.0 | 0.00 | 0.00 | 0.00 | 99 | 1071.1 |
| 20260901062415 | 64 | 198 | 2.0 | 2.0 | 0.00 | 0.00 | 0.00 | 99 | 1071.4 |
| 20260901061412 | 64 | 242 | 1.0 | 1.0 | 0.00 | 0.00 | 0.00 | 99 | 1071.5 |
| 20260901060409 | 64 | 199 | 1.0 | 1.0 | 0.00 | 0.00 | 0.00 | 99 | 1071.3 |
| 20260901055404 | 63 | 238 | 1.0 | 1.0 | 0.00 | 0.00 | 0.00 | 99 | 1071.6 |
| 20260901054404 | 63 | 227 | 1.0 | 1.0 | 0.00 | 0.00 | 0.00 | 99 | 1071.7 |
| 20260901053400 | 63 | 189 | 3.0 | 3.0 | 0.00 | 0.00 | 0.00 | 99 | 1071.7 |